METEOR 2-5 DEB

Satellite information

Favourite Embed

Satellite Type and Status

DEBRISIN ORBIT

Key statistics

Satellite METEOR 2-5 DEB at a glance.

Uptime

16685

Days in orbit

Revolutions

≈ 14.4

Per day

Orbit

LEO

Low Earth Orbit

Inclination

81.2

Latest

Satellite identification and parameters

Extended collection of information and parameters for METEOR 2-5 DEB.

Object identification

Identified? True

Debris? True

Object name: METEOR 2-5 DEB

International designator: 1979-095CB

Object number (NORAD): 38534

Object ID (CCSDS): 38534

Country: COMMONWEALTH OF INDEPENDENT STATES (CIS)

Current information (Y/N): Y

RCS size: SMALL

Orbital parameters

Period: 100.265 minutes

Inclination: 81.2165 deg

SMA: 7149.232 km

Apoapsis: 781.588 km

Periapsis: 760.606 km

RAAN: 120.2605 deg

Eccentricy: 0.0014674

Argument of periapsis: 268.9711 deg

Mean anomaly: 90.9793 deg

Mean motion: 14.36195935 rev/day

Mean motion (dot): 0.00006317 rev/day2

B* drag term: 0.0021587 1/REarth

Two-line elements (TLE)

Creation date: July 3, 2025, 5:26 p.m.

Reference frame: TEME

Reference center: EARTH

Epoch: July 3, 2025, 12:43 p.m. UTC

TLE line 0: 0 METEOR 2-5 DEB

TLE line 1: 1 38534U 79095CB 25184.53035850 .00006317 00000-0 21587-2 0 9994

TLE line 2: 2 38534 81.2165 120.2605 0014674 268.9711 90.9793 14.36195935566707

Live tracking on map

Real-time ground track for satellite METEOR 2-5 DEB.

In-orbit conjunctions

A list of the most updated potential collisions computed for object METEOR 2-5 DEB.

Target Orbit TCA Probability of collision Miss distance Type
CZ-6A DEB LEO 2025-01-20 03:15:30 0.001465555 142.0 (m) DEBRIS
COSMOS 841 LEO 2024-11-23 12:29:10 0.0002222729 95.0 (m) PAYLOAD
IRIDIUM 33 DEB LEO 2024-11-15 01:48:46 0.0004479281 574.0 (m) DEBRIS

Associated space launch

Second generation soviet meteorological satellite

METEOR 2-5 DEB was lifted into orbit during the mission ‘Vostok 8A92M | Meteor-2 5’, on board a Vostok 8A92M space rocket.

The launch took place on Oct. 31, 1979, 9:25 a.m. from 43/4 (43R).

For more information about the launch, click the button.

Launch to space Vostok 8A92M | Meteor-2 5
Vostok 8A92M | Meteor-2 5

Agency: N/A

Status: Launch Successful

Launch date: Oct. 31, 1979, 9:25 a.m. UTC

Rocket: Vostok 8A92M

Launch pad: 43/4 (43R)

Location: Plesetsk Cosmodrome, Russian Federation

...

Latest news about this satellite

There are no fresh news available about this satellite. Check back as we update our databases every day.


Newsletter sign-up

Weekly statistics, charts and insights to help you stay on top of the space industry.